User: anonymous   Login
Location: Acton
(51.4942°N, 0.2232°W)
Time: 17:30:44
(UTC+00:00)
Language:

Cosmos 1655 Rocket - Orbit

View from above orbital plane
View from above orbital plane
View from above satellite
View from above satellite

Ground track
Ground track

The orbit data is extracted from the following two-line orbital elements,

1 15752U 85041B   20337.83880495  .00000075  00000-0  64858-4 0  9995
2 15752  82.9499  93.6763 0023647 210.5028 149.4753 13.73113849779160
Epoch (UTC): 02 December 2020 20:07:52
Eccentricity: 0.0023647
inclination: 82.9499°
perigee height: 971 km
apogee height: 1006 km
right ascension of ascending node: 93.6763°
argument of perigee: 210.5028°
revolutions per day: 13.73113849
mean anomaly at epoch: 149.4753°
orbit number at epoch: 77916

The dashed part of the orbit path shows where the satellite is in the earth's shadow,  

DLR